Location: Unspecified
(49.2170°N, 0.0000°E)
Time: 16:56:00
(UTC+00:00)

Envisat - Pass Details

Date: 28 November 2020
Orbit: 764 x 766 km, 98.1° (Epoch: 20 January)

Event Time Altitude Azimuth Distance (km) Brightness Sun altitude
Rises 18:28:10 0° 216° (SW) 3,223 6.9 -22.5°
Reaches altitude 10° 18:31:31 10° 239° (WSW) 2,303 6.4 -23.0°
Maximum altitude 18:34:20 15° 273° (W) 1,992 6.1 -23.5°
Drops below altitude 10° 18:37:10 10° 307° (NW) 2,313 6.1 -24.0°
Sets 18:40:34 0° 331° (NNW) 3,246 6.6 -24.5°
